TimeMST,TemperatureF,Dew PointF,Humidity,Sea Level PressureIn,VisibilityMPH,Wind Direction,Wind SpeedMPH,Gust SpeedMPH,PrecipitationIn,Events,Conditions,WindDirDegrees,DateUTC
12:15 AM,37.4,33.8,87,30.20,10.0,East,3.5,-,N/A,,Clear,100,2013-02-12 07:15:00
12:35 AM,37.4,33.8,87,30.21,10.0,ESE,4.6,-,N/A,,Clear,120,2013-02-12 07:35:00
12:55 AM,37.4,33.8,87,30.21,10.0,East,4.6,-,N/A,,Clear,100,2013-02-12 07:55:00
1:15 AM,37.4,33.8,87,30.21,10.0,ESE,5.8,-,N/A,,Clear,120,2013-02-12 08:15:00
1:35 AM,37.4,33.8,87,30.20,10.0,SE,5.8,-,N/A,,Clear,130,2013-02-12 08:35:00
1:55 AM,37.4,33.8,87,30.20,10.0,East,5.8,-,N/A,,Clear,100,2013-02-12 08:55:00
2:15 AM,33.8,32.0,93,30.21,10.0,Calm,Calm,-,N/A,,Clear,0,2013-02-12 09:15:00
2:35 AM,33.8,32.0,93,30.21,10.0,ESE,3.5,-,N/A,,Clear,110,2013-02-12 09:35:00
2:55 AM,33.8,32.0,93,30.21,10.0,East,6.9,-,N/A,,Clear,100,2013-02-12 09:55:00
3:15 AM,35.6,32.0,87,30.21,10.0,ESE,8.1,-,N/A,,Clear,110,2013-02-12 10:15:00
3:35 AM,35.6,32.0,87,30.21,10.0,East,4.6,-,N/A,,Clear,90,2013-02-12 10:35:00
3:55 AM,33.8,32.0,93,30.21,10.0,East,5.8,-,N/A,,Clear,100,2013-02-12 10:55:00
4:15 AM,33.8,32.0,93,30.21,10.0,East,5.8,-,N/A,,Clear,100,2013-02-12 11:15:00
4:35 AM,33.8,32.0,93,30.21,10.0,ESE,4.6,-,N/A,,Clear,120,2013-02-12 11:35:00
4:55 AM,33.8,32.0,93,30.22,10.0,SE,4.6,-,N/A,,Clear,130,2013-02-12 11:55:00
5:15 AM,32.0,30.2,93,30.23,10.0,ESE,4.6,-,N/A,,Clear,120,2013-02-12 12:15:00
5:47 AM,33.8,30.2,87,30.23,20.0,East,5.8,-,N/A,,Clear,100,2013-02-12 12:47:00
6:47 AM,33.8,30.2,87,30.25,20.0,East,5.8,-,N/A,,Partly Cloudy,90,2013-02-12 13:47:00
8:47 AM,39.2,35.6,87,30.30,20.0,ESE,3.5,-,N/A,,Scattered Clouds,120,2013-02-12 15:47:00
10:55 AM,46.4,35.6,66,30.32,30.0,Variable,3.5,-,N/A,,Partly Cloudy,0,2013-02-12 17:55:00
11:47 AM,48.2,33.8,58,30.31,30.0,Calm,Calm,-,N/A,,Partly Cloudy,0,2013-02-12 18:47:00
12:47 PM,53.6,32.0,44,30.28,30.0,WNW,5.8,-,N/A,,Partly Cloudy,300,2013-02-12 19:47:00
1:47 PM,53.6,26.6,35,30.25,30.0,WNW,4.6,-,N/A,,Partly Cloudy,300,2013-02-12 20:47:00
2:47 PM,53.6,24.8,33,30.23,30.0,Calm,Calm,-,N/A,,Partly Cloudy,0,2013-02-12 21:47:00
3:47 PM,55.4,19.4,25,30.21,30.0,NW,6.9,-,N/A,,Partly Cloudy,310,2013-02-12 22:47:00
4:47 PM,55.4,19.4,25,30.20,45.0,WNW,5.8,-,N/A,,Partly Cloudy,290,2013-02-12 23:47:00
5:47 PM,55.4,24.8,31,30.21,45.0,WNW,5.8,-,N/A,,Clear,300,2013-02-13 00:47:00
6:47 PM,53.6,28.4,38,30.22,45.0,West,6.9,-,N/A,,Clear,280,2013-02-13 01:47:00
7:47 PM,51.8,23.0,33,30.23,20.0,West,5.8,-,N/A,,Clear,270,2013-02-13 02:47:00
7:55 PM,50.0,24.8,37,30.23,10.0,WNW,3.5,-,N/A,,Clear,290,2013-02-13 02:55:00
8:15 PM,50.0,26.6,40,30.23,10.0,WNW,3.5,-,N/A,,Clear,300,2013-02-13 03:15:00
8:35 PM,46.4,24.8,43,30.23,10.0,Calm,Calm,-,N/A,,Clear,0,2013-02-13 03:35:00
8:47 PM,46.4,24.8,43,30.23,20.0,Calm,Calm,-,N/A,,Clear,0,2013-02-13 03:47:00
8:55 PM,46.4,26.6,46,30.24,10.0,Calm,Calm,-,N/A,,Clear,0,2013-02-13 03:55:00
9:15 PM,44.6,26.6,49,30.24,10.0,Calm,Calm,-,N/A,,Clear,0,2013-02-13 04:15:00
9:35 PM,42.8,26.6,53,30.24,10.0,East,3.5,-,N/A,,Clear,100,2013-02-13 04:35:00
9:55 PM,42.8,26.6,53,30.24,10.0,East,4.6,-,N/A,,Clear,80,2013-02-13 04:55:00
10:15 PM,42.8,28.4,57,30.24,10.0,Calm,Calm,-,N/A,,Clear,0,2013-02-13 05:15:00
10:35 PM,41.0,28.4,61,30.24,10.0,Calm,Calm,-,N/A,,Clear,0,2013-02-13 05:35:00
10:55 PM,41.0,28.4,61,30.24,10.0,SE,4.6,-,N/A,,Clear,130,2013-02-13 05:55:00
11:15 PM,41.0,28.4,61,30.23,10.0,Calm,Calm,-,N/A,,Clear,0,2013-02-13 06:15:00
11:35 PM,41.0,28.4,61,30.22,10.0,SE,5.8,-,N/A,,Clear,130,2013-02-13 06:35:00
11:55 PM,41.0,28.4,61,30.23,10.0,ESE,3.5,-,N/A,,Clear,110,2013-02-13 06:55:00